Orbital elements:
2013 YA173                                                                      
Epoch 2023 Sept. 13.0 TT = JDT 2460200.5                Alexandersen            
M  32.42135              (2000.0)            P               Q                  
n   0.00687266     Peri.  158.86365     -0.03009214     -0.81359212             
a  27.3980451      Node   288.75002     +0.80639316     +0.32349409             
e   0.4322718      Incl.   37.82119     +0.59061369     -0.48313500             
P 143              H   10.63          G   0.15           U   3                  
Residuals in seconds of arc
130503 F51  0.0   0.2+    160112 F51  0.0   0.1+    181107 F52  0.3-  0.1-
131230 F51  0.0   0.1-    160131 F51  0.0   0.0     181215 F51  0.2-  0.0
131230 F51  0.1-  0.3-    160131 F51  0.1+  0.2+    200119 F51  0.5-  0.3+
131230 F51  0.1-  0.1+    160131 F51  0.1-  0.2+    200119 F51  0.1+  0.2-
140126 F51  0.2+  0.2+    160131 F51  0.0   0.0     200119 F51  0.1+  0.2+
140126 F51  0.4-  0.0     160212 F51  0.2-  0.1+    200119 F51  0.0   0.0
140126 F51  0.1-  0.2-    160212 F51  0.1+  0.1+    200125 F52  0.2-  0.4-
140126 F51  0.2+  0.1-    160212 F51  0.2+  0.2-    200126 F52  0.2-  0.1-
141002 F51  0.0   0.1-    160212 F51  0.1+  0.2+    200129 F51  0.1+  0.3-
141002 F51  0.1+  0.0     161128 F51  0.1+  0.1-    200129 F51  0.2+  0.1-
141126 F51  0.3-  0.1+    170129 F51  0.1-  0.0     200129 F51  0.0   0.1-
141126 F51  0.1-  0.2-    170129 F51  0.0   0.5+    200323 F51  0.2-  0.0
150121 F51  0.1+  0.2-    170129 F51  0.0   0.2+    201225 F51  0.3+  0.2-
150121 F51  0.0   0.0     170316 F51  0.0   0.1+    210117 F51  0.2+  0.1-
150121 F51  0.0   0.2+    171223 F51  0.0   0.1+    210209 F51  0.4-  0.0
150121 F51  0.0   0.1+    171223 F51  0.1+  0.2+    210212 F51  0.1+  0.3+
150121 F51  0.1+  0.1+    171223 F51  0.3+  0.1-    210212 F51  0.3+  0.1+
150121 F51  0.2+  0.2+    171223 F51  0.2+  0.3-    210212 F51  0.1+  0.1-
150121 F51  0.0   0.0     171223 F51  0.0   0.1-    210212 F51  0.2+  0.4+
150121 F51  0.1+  0.1-    171223 F51  0.2-  0.0     210212 F51  0.3-  0.3+
150220 F51  0.1-  0.1-    171223 F51  0.1+  0.1-    210212 F51  0.0   0.2+
150222 F51  0.0   0.1-    180110 F51  0.1+  0.0     210212 F51  0.2+  0.1-
150318 F51  0.1+  0.1+    180110 F51  0.3+  0.1-    210212 F51  0.2+  0.1+
151014 F51  0.1-  0.3-    180110 F51  0.1+  0.1+    210407 F51  0.0   0.0
160104 F51  0.1+  0.0     180110 F51  0.1+  0.2+    220204 F52  0.1-  0.1-
160112 F51  0.1+  0.2-    180211 F51  0.3-  0.2+    220204 F52  0.0   0.1+
160112 F51  0.4+  0.1+    181107 F52  0.3-  0.2-    220301 F52  0.1+  0.2-
160112 F51  0.0   0.2-    181107 F52  0.0   0.0     230328 F51  0.0   0.2+

Ephemeris:
2013 YA173               a,e,i = 27.40, 0.43, 38                 q = 15.5546
Date    TT    R. A. (2000) Decl.     Delta      r    Elong.  Phase     V
2023 09 11    09 52 14.2 -17 32 44  20.9528 20.0896    30.3     1.4    23.9
...
2023 09 26    09 55 06.9 -18 01 18  20.9048 20.1125    37.0     1.7    24.0
...
2023 10 04    09 56 30.1 -18 17 42  20.8591 20.1247    41.8     1.9    24.0
...
2023 10 10    09 57 27.5 -18 30 24  20.8162 20.1338    45.9     2.0    24.0
2023 10 11    09 57 36.6 -18 32 33  20.8084 20.1354    46.6     2.1    24.0
2023 10 12    09 57 45.5 -18 34 42  20.8004 20.1369    47.3     2.1    24.0
...
2023 10 18    09 58 36.3 -18 47 42  20.7484 20.1461    51.7     2.2    24.0
...
2023 10 26    09 59 35.3 -19 05 14  20.6697 20.1583    57.9     2.4    24.0
...
2023 11 10    10 00 56.2 -19 37 55  20.4982 20.1812    70.0     2.6    24.0

M. P. C. Staff               (C) Copyright 2023 MPC           M.P.E.C. 2023-T160





More information about the Iaude mailing list